Date String (YYYY-MM-DD hh:mm:ss) UTC,Instrument flags,Ambient pressure (hPa),Sample flow (lpm),Bypass flow (lpm),Sample temperature (°C),Ambient temperature (°C),ASC tube jacket temperature (°C),LED temperature (°C),Box temperature (°C),Sample RH (%),Span deviation,Mass concentration (μg/m³),Mass concentration (μg/m³),Mass concentration (μg/m³)
DateTimeUTC,F1_M11,P_M11,Q1_M11,Q2_M11,T1_M11,T2_M11,T3_M11,T4_M11,T5_M11,U1_M11,ZSPAN_M11,X0_M11,X2_M11,X1_M11
2022-04-15 15:00:00,,0818.7,5.00,0.00,23.2,22.4,00.0,32.2,25.0,09.2,0000.0,0022.85,0005.75,0003.72
2022-04-15 15:01:00,,0818.6,5.01,0.00,23.2,22.4,00.0,32.2,25.0,09.2,0000.0,0023.75,0005.74,0003.73
2022-04-15 15:02:00,,0818.5,5.00,0.00,23.2,22.4,00.0,32.1,25.0,09.2,0000.0,0023.91,0005.71,0003.73
2022-04-15 15:03:00,,0818.8,4.99,0.00,23.2,22.4,00.0,32.1,25.0,09.3,0000.0,0023.08,0005.73,0003.74
2022-04-15 15:04:00,,0818.8,4.99,0.00,23.2,22.4,00.0,32.1,25.0,09.3,0000.0,0021.74,0005.76,0003.73
2022-04-15 15:05:00,,0818.8,4.99,0.00,23.2,22.4,00.0,32.1,25.0,09.3,0000.0,0020.63,0005.76,0003.74
2022-04-15 15:06:00,,0818.8,5.02,0.00,23.2,22.4,00.0,32.1,25.0,09.4,0000.0,0020.85,0005.66,0003.72
2022-04-15 15:07:00,,0818.8,5.00,0.00,23.2,22.4,00.0,32.1,25.0,09.5,0000.0,0020.52,0005.55,0003.72
2022-04-15 15:08:00,,0818.8,5.00,0.00,23.2,22.4,00.0,32.1,25.0,09.5,0000.0,0020.21,0005.52,0003.72
2022-04-15 15:09:00,,0818.8,5.00,0.00,23.2,22.4,00.0,32.1,25.0,09.5,0000.0,0020.54,0005.50,0003.74
2022-04-15 15:10:00,,0818.8,5.00,0.00,23.2,22.4,00.0,32.1,25.0,09.5,0000.0,0020.21,0005.48,0003.74
2022-04-15 15:11:00,,0818.8,5.00,0.00,23.2,22.4,00.0,32.1,25.0,09.5,0000.0,0021.30,0005.48,0003.74
2022-04-15 15:12:00,,0818.8,4.99,0.00,23.2,22.4,00.0,32.1,25.0,09.6,0000.0,0021.08,0005.51,0003.75
2022-04-15 15:13:00,,0818.8,4.99,0.00,23.2,22.4,00.0,32.1,24.9,09.6,0000.0,0020.59,0005.57,0003.75
2022-04-15 15:14:00,,0818.8,5.00,0.00,23.1,22.4,00.0,32.1,24.9,09.6,0000.0,0020.64,0005.62,0003.76
2022-04-15 15:15:00,,0819.0,5.01,0.00,23.1,22.3,00.0,32.1,24.9,09.6,0000.0,0021.38,0005.63,0003.77
2022-04-15 15:16:00,,0818.9,5.01,0.00,23.1,22.2,00.0,32.1,24.9,09.7,0000.0,0021.28,0005.64,0003.77
2022-04-15 15:17:00,,0818.9,5.01,0.00,23.1,22.2,00.0,32.1,24.8,09.7,0000.0,0021.52,0005.75,0003.78
2022-04-15 15:18:00,,0818.8,4.99,0.00,23.1,22.1,00.0,32.1,24.8,09.7,0000.0,0021.98,0005.86,0003.78
2022-04-15 15:19:00,,0818.8,5.00,0.00,23.0,22.1,00.0,32.1,24.7,09.8,0000.0,0021.97,0005.94,0003.79
2022-04-15 15:20:00,,0818.8,5.00,0.00,23.0,22.0,00.0,32.0,24.7,09.8,0000.0,0022.74,0006.04,0003.79
2022-04-15 15:21:00,,0818.8,5.00,0.00,23.0,22.0,00.0,32.0,24.7,09.8,0000.0,0023.12,0006.11,0003.81
2022-04-15 15:22:00,,0818.8,5.02,0.00,23.0,22.0,00.0,32.0,24.7,09.7,0000.0,0022.01,0006.11,0003.82
2022-04-15 15:23:00,,0818.8,5.01,0.00,23.0,22.0,00.0,32.0,24.7,09.7,0000.0,0021.07,0006.14,0003.84
2022-04-15 15:24:00,,0818.8,5.01,0.00,23.0,22.0,00.0,32.0,24.7,09.8,0000.0,0020.97,0006.21,0003.86
2022-04-15 15:25:00,,0818.9,5.00,0.00,23.0,22.1,00.0,32.0,24.8,09.9,0000.0,0021.48,0006.27,0003.86
2022-04-15 15:26:00,,0818.9,4.99,0.00,23.0,22.1,00.0,32.0,24.8,09.9,0000.0,0022.09,0006.26,0003.88
2022-04-15 15:27:00,,0818.9,5.00,0.00,23.0,22.2,00.0,32.0,24.8,09.8,0000.0,0022.24,0006.25,0003.88
2022-04-15 15:28:00,,0818.9,5.00,0.00,23.0,22.2,00.0,32.0,24.9,09.8,0000.0,0020.89,0006.21,0003.90
2022-04-15 15:29:00,,0818.9,5.00,0.00,23.0,22.2,00.0,32.0,24.9,09.7,0000.0,0020.66,0006.20,0003.92
2022-04-15 15:30:00,,0818.9,5.00,0.00,23.1,22.3,00.0,32.0,24.9,09.9,0000.0,0020.51,0006.18,0003.93
2022-04-15 15:31:00,,0818.9,5.00,0.00,23.1,22.3,00.0,32.0,24.9,09.8,0000.0,0020.01,0006.15,0003.94
2022-04-15 15:32:00,,0818.8,5.02,0.00,23.1,22.3,00.0,32.0,25.0,09.7,0000.0,0020.08,0006.23,0003.94
2022-04-15 15:33:00,,0818.8,5.00,0.00,23.1,22.3,00.0,32.0,25.0,09.8,0000.0,0020.13,0006.28,0003.95
2022-04-15 15:34:00,,0818.9,5.00,0.00,23.1,22.4,00.0,32.0,24.9,09.9,0000.0,0020.33,0006.21,0003.94
2022-04-15 15:35:00,,0818.9,5.00,0.00,23.1,22.4,00.0,32.0,25.0,09.7,0000.0,0020.52,0006.20,0003.93
2022-04-15 15:36:00,,0818.9,4.99,0.00,23.1,22.4,00.0,32.0,25.0,09.7,0000.0,0020.07,0006.15,0003.94
2022-04-15 15:37:00,,0818.9,5.00,0.00,23.2,22.4,00.0,32.0,25.0,09.6,0000.0,0018.65,0006.17,0003.95
2022-04-15 15:38:00,,0818.9,5.00,0.00,23.2,22.5,00.0,32.0,25.0,09.6,0000.0,0018.26,0006.16,0003.95
2022-04-15 15:39:00,,0819.0,5.00,0.00,23.2,22.5,00.0,32.1,25.0,09.7,0000.0,0018.15,0006.13,0003.94
2022-04-15 15:40:00,,0819.0,5.00,0.00,23.2,22.5,00.0,32.1,25.0,09.9,0000.0,0017.76,0006.16,0003.96
2022-04-15 15:41:00,,0819.1,5.00,0.00,23.2,22.5,00.0,32.1,25.1,09.8,0000.0,0018.29,0006.18,0003.97
2022-04-15 15:42:00,,0819.1,5.00,0.00,23.2,22.5,00.0,32.1,25.1,09.8,0000.0,0018.61,0006.23,0003.99
2022-04-15 15:43:00,,0819.1,5.01,0.00,23.2,22.5,00.0,32.1,25.1,09.9,0000.0,0018.04,0006.10,0003.99
2022-04-15 15:44:00,,0819.0,5.01,0.00,23.2,22.5,00.0,32.1,25.1,09.8,0000.0,0018.05,0006.03,0004.01
2022-04-15 15:45:00,,0819.1,5.00,0.00,23.2,22.5,00.0,32.1,25.1,09.7,0000.0,0018.39,0006.08,0004.04
2022-04-15 15:46:00,,0819.1,5.00,0.00,23.2,22.5,00.0,32.1,25.1,09.7,0000.0,0019.62,0006.11,0004.07
2022-04-15 15:47:00,,0819.1,5.00,0.00,23.3,22.5,00.0,32.1,25.1,09.8,0000.0,0020.27,0006.12,0004.08
2022-04-15 15:48:00,,0819.3,5.00,0.00,23.3,22.5,00.0,32.1,25.1,09.8,0000.0,0020.77,0006.13,0004.11
2022-04-15 15:49:00,,0819.2,5.00,0.00,23.3,22.6,00.0,32.1,25.1,09.7,0000.0,0021.51,0006.20,0004.14
2022-04-15 15:50:00,,0819.2,4.99,0.00,23.3,22.6,00.0,32.1,25.1,09.6,0000.0,0022.09,0006.26,0004.17
2022-04-15 15:51:00,,0819.2,5.00,0.00,23.3,22.6,00.0,32.1,25.1,09.7,0000.0,0021.96,0006.24,0004.18
2022-04-15 15:52:00,,0819.2,4.99,0.00,23.3,22.6,00.0,32.1,25.1,09.7,0000.0,0021.52,0006.21,0004.18
2022-04-15 15:53:00,,0819.3,5.00,0.00,23.3,22.6,00.0,32.1,25.1,09.7,0000.0,0021.72,0006.16,0004.19
2022-04-15 15:54:00,,0819.2,5.02,0.00,23.3,22.6,00.0,32.2,25.1,09.7,0000.0,0022.20,0006.20,0004.20
2022-04-15 15:55:00,,0819.2,5.00,0.00,23.3,22.6,00.0,32.2,25.1,09.7,0000.0,0022.10,0006.29,0004.23
2022-04-15 15:56:00,,0819.2,5.00,0.00,23.3,22.6,00.0,32.2,25.1,09.7,0000.0,0021.96,0006.30,0004.22
2022-04-15 15:57:00,,0819.1,4.99,0.00,23.3,22.7,00.0,32.2,25.1,09.6,0000.0,0020.94,0006.26,0004.20
2022-04-15 15:58:00,,0819.0,5.00,0.00,23.3,22.7,00.0,32.2,25.2,09.6,0000.0,0021.14,0006.29,0004.18
2022-04-15 15:59:00,,0819.0,5.01,0.00,23.3,22.6,00.0,32.2,25.2,09.8,0000.0,0021.07,0006.30,0004.17
